Regional Weather Roundup
Issued by NWS

Home | Current Version | Previous Version | Graphics & Text | Print | Product List | Glossary On
Versions: 1 2 3 4 5 6 7 8 9 10 11 12 13 14 15 16 17 18 19 20 21 22 23 24 25 26 27 28 29 30 31 32 33 34 35 36 37 38 39 40 41 42 43 44 45 46 47 48 49 50
000
ASUS45 KCYS 221110
RWRWY

WYOMING REGIONAL WEATHER ROUNDUP
NATIONAL WEATHER SERVICE CHEYENNE WY
400 AM MST MON DEC 22 2014

NOTE:  "FAIR" INDICATES FEW OR NO CLOUDS BELOW 12,000 FEET
WITH NO SIGNIFICANT WEATHER AND/OR OBSTRUCTIONS TO VISIBILITY.

WYZ001-221200-
YELLOWSTONE NATIONAL PARK

CITY           SKY/WX    TMP DP  RH WIND       PRES   REMARKS
LK YELLOWSTONE   N/A     22  17  81 VRB7G18   29.80S WCI  13
W YELLOWSTONE  NOT AVBL

$$
WYZ002>013-054>058-071-098>099-221200-
NORTHERN WYOMING

CITY           SKY/WX    TMP DP  RH WIND       PRES   REMARKS
JACKSON        CLOUDY    30  25  80 S7        29.84F WCI  23
CODY           CLOUDY    36  23  60 W6        29.73S WCI  31
GREYBULL       MOCLDY    26  21  81 SW3       29.74S
WORLAND        CLOUDY    24  21  88 SW13      29.76R WCI  12
SHERIDAN       MOCLDY    37  20  50 NW18      29.68F WCI  27
BUFFALO        FAIR      35  14  42 NW21G28   29.68S WCI  24
GILLETTE       CLOUDY    32  24  72 NW16      29.66R WCI  21
HULETT           N/A    N/A N/A N/A MISG        N/A
NEWCASTLE      FAIR      32  30  93 NW16G22   29.62S WCI  21

$$
WYZ014>020-022>026-101>103-221200-
CENTRAL WYOMING

CITY           SKY/WX    TMP DP  RH WIND       PRES   REMARKS
BIG PINEY      CLOUDY    26  21  81 W9        29.85F WCI  17
PINEDALE       FLURRIES  23  23 100 W9        29.85S WCI  13
DUBOIS         NOT AVBL
LANDER         FAIR      26  13  57 W7        29.76F WCI  18
RIVERTON       FAIR      33  19  56 NW24G31   29.75S WCI  20
CASPER         FAIR      23  17  78 W10       29.73F WCI  12
DOUGLAS        FAIR      30  24  78 NW16      29.72R WCI  19

$$
WYZ021-027>030-104>119-221200-
SOUTHERN WYOMING

CITY           SKY/WX    TMP DP  RH WIND       PRES   REMARKS
EVANSTON       CLOUDY    30  27  88 W14       29.94S WCI  19
KEMMERER       LGT SNOW  28  27  93 W21       29.89S WCI  15
FORT BRIDGER   CLOUDY    32  28  86 W23G30    29.93S WCI  19
ROCK SPRINGS   FAIR      26  22  84 NE7       29.86R WCI  18
DIXON          FAIR      21  17  86 SE3       29.86F
RAWLINS        FAIR      22  14  71 W9        29.79S WCI  12
SARATOGA       PTSUNNY   19  14  79 W8        29.79F WCI   9
LARAMIE        CLOUDY    25  16  68 NW17      29.72R WCI  12
CHEYENNE       FAIR      28  19  69 NW12      29.70R WCI  18
TORRINGTON     CLOUDY   N/A N/A N/A W12       29.69R
PINE BLUFFS    FLURRIES  30  28  93 NW18G24   29.70R WCI  18

$$



USA.gov is the U.S. government's official web portal to all federal, state and local government web resources and services.